Find Satcom 4

NORAD ID: 13035 Int'l Des: 1982-004 Owner: AMC Country: US operational
HEOCIRCULAR

Live Position

Loading 3D Globe...

About Satcom 4

Description loading...

Upcoming Passes

Passes for default location (London). Set your location on the main map for personalized predictions.

Altitude History

Loading altitude history...

Two-Line Element Set

1 13035U 82004A 26106.25576037 .00000092 00000-0 00000+0 0 9996
2 13035 12.8482 336.0104 0044935 201.5943 158.1609 0.99590209124599
Epoch: Apr 16, 2026 • Age: 34 hours

Current Status

Altitude 35864.8 km
Velocity 3.08 km/s
Sub-Earth Point 6.79°N, 36.05°E
Launch Date Jan 16, 1982
Age 44.2 years
Type other

Technical Details

Classification Payload
Mass 577.00 kg
Dry Mass 554.00 kg
Total Mass 1082.00 kg
Length 1.30 m
Diameter 1.30 m
Span 11.30 m
Shape Box + 2 Pan
Manufacturer RCA
Bus Type Satcom
Phase Status In Orbit
Owner/State AMC/US

Most Searched